Location: Normandy Village
(37.8755°N, 122.2655°W)
Time: 07:20:14
(UTC+00:00)

Cosmos 1680 Rocket - Pass Details

Date: 22 September 2019
Orbit: 760 x 780 km, 74.1° (Epoch: 17 October)

Event Time Altitude Azimuth Distance (km) Brightness Sun altitude
Exits shadow 12:29:18 - 191° (S) 2,969 6.3 -17.9°
Reaches altitude 10° 12:31:01 10° 190° (S) 2,304 5.7 -17.6°
Maximum altitude 12:36:13 74° 106° (ESE) 801 3.7 -16.6°
Drops below altitude 10° 12:41:27 10° 22° (NNE) 2,307 6.5 -15.6°
Sets 12:43:49 0° 21° (NNE) 3,234 7.2 -15.1°
